Regional Weather Roundup
Issued by NWS Kansas City/Pleasant Hill, MO

Home | Current Version | Previous Version | Text Only | Print | Product List | Glossary On
Versions: 1 2 3 4 5 6 7 8 9 10 11 12 13 14 15 16 17 18 19 20 21 22 23 24 25 26 27
000
ASUS43 KEAX 281910
RWREAX

WEATHER ROUNDUP FOR EASTERN KANSAS AND NORTHWEST MISSOURI
NATIONAL WEATHER SERVICE KANSAS CITY/PLEASANT HILL MO
200 PM CDT SUN AUG 28 2016

KSZ040-057-103>105-MOZ028-029-037-043-282000-
...KANSAS CITY METROPOLITAN AREA...

CITY           SKY/WX    TMP DP  RH WIND       PRES   REMARKS
K.C. INTL      MOSUNNY   87  69  54 S6        30.11F HX  91
K.C. DOWNTOWN  MOSUNNY   88  70  55 SE10      30.09F HX  93
LEES SUMMIT    PTSUNNY   86  71  60 SE6       30.13F HX  91
OLATHE - IXD   MOSUNNY   88  71  57 SE9       30.12F HX  94
OLATHE - OJC   MOSUNNY   86  70  58 S8        30.12F HX  90
LAWRENCE       MOSUNNY   89  71  55 SE12      30.10F HX  95

$$

MOZ001>008-011>017-020>025-030>033-038>040-044>046-053-054-282000-
...NORTHERN AND CENTRAL MISSOURI...

CITY           SKY/WX    TMP DP  RH WIND       PRES   REMARKS
ST. JOSEPH     PTSUNNY   84  73  69 S6        30.10F THUNDER HX  90
MOSBY          PTCLDY    88  70  55 SE7       30.11F HX  92
WHITEMAN AFB   PTSUNNY   87  73  63 VRB3      30.11F HX  95
CLINTON        MOSUNNY   88  75  66 CALM      30.13F HX  97
SEDALIA        PTSUNNY   90  72  55 CALM      30.14F HX  97
WARSAW         NOT AVBL
CHILLICOTHE    NOT AVBL
KIRKSVILLE     PTSUNNY   88  73  61 S5        30.15F HX  95

$$

MOZ041-047>049-056>058-063>065-088>090-097-282000-
...EASTERN AND SOUTHERN MISSOURI...

CITY           SKY/WX    TMP DP  RH WIND       PRES   REMARKS
ST. LOUIS INTL PTSUNNY   94  65  38 S8        30.15F HX  96
SPIRIT OF STL  MOSUNNY   90  69  50 VRB5      30.13F HX  94
COLUMBIA       MOSUNNY   88  74  63 SE7       30.14F HX  96
JEFFERSON CITY MOSUNNY   89  74  60 SE8       30.12F HX  98
ROLLA          PTSUNNY   87  70  56 SE5       30.16F HX  92
OSAGE BEACH    PTSUNNY   87  72  60 E7        30.15F HX  93
SPRINGFIELD    SUNNY     89  64  43 S10       30.14F HX  90
BRANSON        PTSUNNY   86  70  58 E12       30.16F HX  90
JOPLIN         PTSUNNY   88  68  51 VRB6      30.12F HX  91
WEST PLAINS    MOSUNNY   86  69  56 SE8       30.17F HX  90

$$

IAZ060-094-KSZ022-034>040-054-083-096-NEZ052-066-093-282000-
...KANSAS...SOUTHEAST NEBRASKA AND IOWA...

CITY           SKY/WX    TMP DP  RH WIND       PRES   REMARKS
TOPEKA         PTSUNNY   89  74  60 SE9       30.09F HX  98
MANHATTAN      MOSUNNY   90  71  53 SE8       30.08F HX  96
EMPORIA        MOSUNNY   85  71  63 SE8       30.11S HX  90
CHANUTE        MOSUNNY   88  72  58 VRB5      30.11F HX  94
WICHITA        MOSUNNY   89  70  53 S12       30.09F HX  94
OMAHA          PTSUNNY   88  72  58 SE14      30.08F HX  94
LINCOLN        MOSUNNY   92  68  45 S13G20    30.08F HX  96
FALLS CITY     MOSUNNY   89  71  55 SE6       30.08F HX  95
LAMONI         SUNNY     86  73  65 SE9       30.13F HX  93
DES MOINES     PTSUNNY   88  74  63 S8        30.11F HX  96

$$





USA.gov is the U.S. government's official web portal to all federal, state and local government web resources and services.